This is the latest recevied weather packets stored in our database for station/object WD0REW. If no packets are shown the sender has not sent any weather packets the latest 10 day(s).
| Time | Temp. | Humidity | Pressure | Rain* | Wind** | Luminosity | Snow |
|---|---|---|---|---|---|---|---|
| 1777489564 | 17.78° C | 50% | 1018.5 hPa | 0 mm | - | 716 W/m² | - |
| 1777489260 | 18.33° C | 49% | 1018.6 hPa | 0 mm | - | 717 W/m² | - |
| 1777488957 | 18.33° C | 52% | 1018.4 hPa | 0 mm | - | 706 W/m² | - |
| 1777488654 | 17.78° C | 54% | 1018.6 hPa | 0 mm | - | 787 W/m² | - |
| 1777488352 | 17.78° C | 51% | 1018.7 hPa | 0 mm | - | 787 W/m² | - |
| 1777488050 | 17.22° C | 52% | 1018.6 hPa | 0 mm | - | 788 W/m² | - |
| 1777487747 | 17.22° C | 52% | 1018.9 hPa | 0 mm | - | 793 W/m² | - |
| 1777487445 | 16.67° C | 53% | 1018.7 hPa | 0 mm | - | 794 W/m² | - |
| 1777487143 | 16.67° C | 53% | 1018.8 hPa | 0 mm | - | 787 W/m² | - |
| 1777486838 | 17.22° C | 53% | 1018.9 hPa | 0 mm | - | 805 W/m² | - |
| 1777486536 | 16.67° C | 55% | 1019 hPa | 0 mm | - | 807 W/m² | - |
| 1777486233 | 16.11° C | 56% | 1019 hPa | 0 mm | - | 814 W/m² | - |
| 1777485931 | 16.67° C | 57% | 1019 hPa | 0 mm | - | 728 W/m² | - |
| 1777485626 | 16.11° C | 57% | 1019.2 hPa | 0 mm | - | 757 W/m² | - |
| 1777485321 | 16.11° C | 56% | 1019.1 hPa | 0 mm | - | 674 W/m² | - |
| 1777485018 | 16.11° C | 58% | 1019.3 hPa | 0 mm | - | 703 W/m² | - |
| 1777484716 | 16.11° C | 56% | 1019 hPa | 0 mm | - | 774 W/m² | - |
| 1777484412 | 16.11° C | 57% | 1019.3 hPa | 0 mm | - | 691 W/m² | - |
| 1777484109 | 15.56° C | 57% | 1019.2 hPa | 0 mm | - | 765 W/m² | - |
| 1777483804 | 15.56° C | 56% | 1019.1 hPa | 0 mm | - | 679 W/m² | - |
| 1777483496 | 15.56° C | 58% | 1019.4 hPa | 0 mm | - | 853 W/m² | - |
| 1777483196 | 15.56° C | 58% | 1019.6 hPa | 0 mm | - | 797 W/m² | - |
| 1777482893 | 15.56° C | 60% | 1019.4 hPa | 0 mm | - | 848 W/m² | - |
| 1777482588 | 15.56° C | 62% | 1019.8 hPa | 0 mm | - | 652 W/m² | - |
| 1777482286 | 16.11° C | 59% | 1019.7 hPa | 0 mm | - | 580 W/m² | - |
* Rain latest hour (hover to see other rain measurements)
** Current wind speed in m/s (hover to see current wind gust speed)